Waarnemingen

Advertentie
Mijn weer
Boulmer, Groot Brittannië (3240): temperatuur & dauwpunt: 17.10.2018 13:00:00 - 23.10.2018 13:00:00 (BST)Boulmer, Groot Brittannië (3240): windsnelheid & windstoten: 17.10.2018 13:00:00 - 23.10.2018 13:00:00 (BST)Boulmer, Groot Brittannië (3240): windrichting: 17.10.2018 13:00:00 - 23.10.2018 13:00:00 (BST)Boulmer, Groot Brittannië (3240): luchtdruk: 17.10.2018 13:00:00 - 23.10.2018 13:00:00 (BST)Boulmer, Groot Brittannië (3240): zicht: 17.10.2018 13:00:00 - 23.10.2018 13:00:00 (BST)Boulmer, Groot Brittannië (3240): Zonneschijnduur: 17.10.2018 13:00:00 - 23.10.2018 13:00:00 (BST)Boulmer, Groot Brittannië (3240): neerslag: 17.10.2018 13:00:00 - 23.10.2018 13:00:00 (BST)
Datum & Tijd tt [°C] td [°C] ff [km/u] ff [kn] fx [km/u] fx [kn] dd ppp [hPa] vv [km] sd [min] rr [mm]
23.10.2018 13:00:00 16,2 9,4 48 26 80 43 W 1021,6 10 60 0,0
23.10.2018 12:00:00 15,5 8,9 48 26 76 41 W 1021,2 35 60 0,0
23.10.2018 11:00:00 14,6 8,0 59 32 83 45 W 1020,7 10 60 0,0
23.10.2018 10:00:00 13,5 7,5 52 28 78 42 W 1020,8 10 42 0,0
23.10.2018 09:00:00 12,5 6,9 37 20 67 36 W 1021,5 10 0 0,0
23.10.2018 08:00:00 12,2 6,0 41 22 70 38 WZW 1020,9 28 0 0,0
23.10.2018 07:00:00 12,4 5,9 31 17 63 34 W 1021,5 10 0 0,0
23.10.2018 06:00:00 12,4 6,9 37 20 67 36 W 1021,5 10 0 0,0
23.10.2018 05:00:00 12,6 7,4 35 19 63 34 WZW 1021,7 10 0 0,0
23.10.2018 04:00:00 12,0 6,9 31 17 50 27 WZW 1023,2 10 0 0,0
23.10.2018 03:00:00 12,0 6,3 34 18 63 34 WZW 1023,8 10 0 0,0
23.10.2018 02:00:00 11,8 5,9 37 20 67 36 WZW 1024,7 10 0 0,0
23.10.2018 01:00:00 11,9 5,6 52 28 72 39 W 1025,7 10 - 0,0
23.10.2018 00:00:00 11,9 5,5 44 24 72 39 WZW 1026,2 10 0 0,0
22.10.2018 23:00:00 11,6 5,3 50 27 70 38 W 1026,2 10 0 0,0
22.10.2018 22:00:00 11,5 5,1 42 23 63 34 WZW 1027,4 10 0 0,0
22.10.2018 21:00:00 11,5 5,5 28 15 52 28 WZW 1029,2 28 0 0,0
22.10.2018 20:00:00 11,2 5,8 28 15 46 25 WZW 1028,6 10 0 0,0
22.10.2018 19:00:00 11,3 6,4 28 15 - - W 1029,5 10 0 0,0
22.10.2018 18:00:00 11,4 6,1 31 17 55 30 W 1030,1 30 0 0,0
22.10.2018 17:00:00 11,9 5,8 28 15 54 29 WZW 1031,2 30 54 0,0
22.10.2018 16:00:00 12,8 5,2 24 13 48 26 WZW 1031,7 10 60 0,0
22.10.2018 15:00:00 12,9 4,5 31 17 46 25 WZW 1032,4 29 60 0,0
22.10.2018 14:00:00 13,0 5,4 26 14 - - WZW 1033,8 10 60 0,0
22.10.2018 13:00:00 12,2 5,1 24 13 48 26 WZW 1034,4 10 60 0,0
22.10.2018 12:00:00 11,8 5,2 21 11 - - WZW 1035,2 30 60 0,0
22.10.2018 11:00:00 10,0 4,6 22 12 - - WZW 1035,3 30 60 0,0
22.10.2018 10:00:00 8,4 4,2 21 11 - - WZW 1035,7 10 60 0,0
22.10.2018 09:00:00 6,1 3,0 16 9 - - WZW 1035,2 10 30 0,0
22.10.2018 08:00:00 5,1 2,5 22 12 - - WZW 1034,7 25 0 0,0
22.10.2018 07:00:00 4,8 2,3 18 10 - - WZW 1034,5 10 0 0,0
22.10.2018 06:00:00 5,7 2,9 22 12 - - WZW 1033,9 10 0 0,0
22.10.2018 05:00:00 4,5 2,5 13 7 - - ZW 1033,5 10 0 0,0
22.10.2018 04:00:00 5,1 2,7 16 9 - - WZW 1033,0 10 0 0,0
22.10.2018 03:00:00 4,7 2,3 15 8 - - ZW 1032,3 10 0 0,0
22.10.2018 02:00:00 6,0 2,8 16 9 - - ZW 1031,8 30 0 0,0
22.10.2018 01:00:00 5,5 2,6 13 7 - - ZW 1031,2 10 - 0,0
22.10.2018 00:00:00 6,7 2,4 9 5 - - ZW 1030,8 10 0 0,0
21.10.2018 23:00:00 7,9 2,6 13 7 - - WZW 1030,0 10 0 0,0
21.10.2018 22:00:00 8,7 2,5 18 10 - - W 1029,5 10 0 0,0
21.10.2018 21:00:00 8,9 3,7 9 5 - - WZW 1028,9 30 0 0,0
21.10.2018 20:00:00 9,5 3,3 5 3 - - NW 1027,9 30 0 0,0
21.10.2018 19:00:00 10,8 5,4 11 6 - - W 1027,1 10 0 0,0
21.10.2018 18:00:00 11,8 5,9 13 7 - - W 1026,1 10 6 0,0
21.10.2018 17:00:00 13,3 7,0 28 15 48 26 W 1024,4 30 36 0,0
21.10.2018 16:00:00 13,6 7,3 26 14 - - W 1024,2 35 12 0,0
21.10.2018 15:00:00 14,0 7,9 28 15 - - W 1023,6 10 0 0,0
21.10.2018 14:00:00 13,9 10,0 21 11 52 28 W 1023,0 10 0 0,0
21.10.2018 13:00:00 14,3 10,8 29 16 50 27 WNW 1022,6 10 18 0,2
21.10.2018 12:00:00 17,5 13,7 29 16 52 28 WZW 1021,4 10 30 0,0
21.10.2018 11:00:00 16,6 13,3 21 11 - - ZW 1021,3 35 6 0,0
21.10.2018 10:00:00 15,2 13,0 13 7 - - ZZW 1021,5 10 0 0,0
21.10.2018 09:00:00 14,4 12,7 13 7 - - ZZO 1021,8 10 0 0,0
21.10.2018 08:00:00 14,9 12,8 22 12 - - Z 1022,0 10 0 0,0
21.10.2018 07:00:00 14,8 12,9 24 13 - - ZZW 1022,1 10 0 0,0
21.10.2018 06:00:00 14,3 13,1 16 9 - - ZZW 1022,5 24 0 0,0
21.10.2018 05:00:00 14,3 13,0 15 8 - - Z 1023,0 25 0 0,0
21.10.2018 04:00:00 14,2 12,8 11 6 - - ZZO 1023,7 24 0 0,0
21.10.2018 03:00:00 14,2 12,5 22 12 - - ZZW 1024,0 10 0 0,0
21.10.2018 02:00:00 14,3 12,5 24 13 - - ZW 1024,3 10 0 0,0
21.10.2018 01:00:00 14,1 12,6 22 12 - - ZZW 1025,0 10 - 0,0
21.10.2018 00:00:00 13,7 12,3 28 15 - - ZZW 1025,2 17 0 0,0
20.10.2018 23:00:00 13,8 12,0 24 13 - - ZZW 1025,7 23 0 0,0
20.10.2018 22:00:00 13,7 11,9 24 13 - - ZZW 1025,9 10 0 0,0
20.10.2018 21:00:00 13,6 11,7 22 12 - - ZW 1026,1 26 0 0,0
20.10.2018 20:00:00 13,6 11,6 24 13 - - ZW 1025,8 10 0 0,0
20.10.2018 19:00:00 13,9 11,6 26 14 - - ZZW 1025,4 10 0 0,0
20.10.2018 18:00:00 14,3 11,7 34 18 50 27 ZW 1025,1 23 6 0,0
20.10.2018 17:00:00 14,3 11,7 28 15 - - ZW 1024,8 10 18 0,0
20.10.2018 16:00:00 14,9 11,9 26 14 - - ZZW 1025,4 27 0 0,0
20.10.2018 15:00:00 14,8 12,6 22 12 - - ZZW 1025,7 10 0 0,0
20.10.2018 14:00:00 15,3 12,3 24 13 - - ZW 1025,8 10 6 0,0
20.10.2018 13:00:00 16,1 12,0 31 17 - - ZW 1025,8 27 24 0,0
20.10.2018 12:00:00 15,6 12,1 21 11 - - ZZW 1026,1 10 18 0,0
20.10.2018 11:00:00 14,8 11,5 24 13 - - ZZW 1026,2 25 60 -
20.10.2018 10:00:00 13,8 11,1 26 14 - - ZZW 1026,0 10 60 0,0
20.10.2018 09:00:00 12,1 10,4 16 9 - - ZW 1026,5 26 24 0,0
20.10.2018 08:00:00 11,6 10,6 15 8 - - Z 1026,4 20 0 0,0
20.10.2018 07:00:00 11,1 10,3 15 8 - - Z 1026,3 10 0 0,0
20.10.2018 06:00:00 11,1 10,6 16 9 - - Z 1026,1 10 0 0,0
20.10.2018 05:00:00 9,6 9,2 11 6 - - Z 1026,4 10 0 0,0
20.10.2018 04:00:00 7,9 7,2 9 5 - - Z 1026,4 15 0 0,0
20.10.2018 03:00:00 8,3 7,4 11 6 - - ZZW 1026,6 10 0 0,0
20.10.2018 02:00:00 8,1 7,0 8 4 - - ZZW 1026,5 10 0 0,0
20.10.2018 01:00:00 8,0 6,7 5 3 - - Z 1026,4 10 - 0,0
20.10.2018 00:00:00 9,8 8,4 15 8 - - ZW 1026,1 30 0 0,0
19.10.2018 23:00:00 10,0 8,7 11 6 - - WZW 1025,9 30 0 0,0
19.10.2018 22:00:00 10,7 9,5 15 8 - - WZW 1025,8 28 0 0,0
19.10.2018 21:00:00 10,2 9,0 15 8 - - WZW 1025,4 30 0 0,0
19.10.2018 20:00:00 10,7 9,3 13 7 - - ZW 1024,2 30 0 0,0
19.10.2018 19:00:00 10,9 9,2 15 8 - - WZW 1023,9 10 0 0,0
19.10.2018 18:00:00 11,5 9,2 16 9 - - ZW 1023,5 35 0 0,0
19.10.2018 17:00:00 12,6 9,1 26 14 48 26 WZW 1023,2 10 0 0,0
19.10.2018 16:00:00 13,2 8,6 37 20 54 29 WZW 1022,1 30 36 0,0
19.10.2018 15:00:00 14,2 8,3 34 18 52 28 WZW 1021,6 30 24 0,0
19.10.2018 14:00:00 13,2 7,8 26 14 48 26 WZW 1021,8 29 30 0,0
19.10.2018 13:00:00 13,4 7,6 24 13 - - ZW 1022,4 10 30 0,0
19.10.2018 12:00:00 8,4 6,2 11 6 - - ZO 1022,8 14 6 0,0
19.10.2018 11:00:00 7,3 5,5 13 7 - - Z 1023,1 15 6 0,0
19.10.2018 10:00:00 5,9 4,0 15 8 - - ZZO 1023,0 10 12 0,0
19.10.2018 09:00:00 4,9 3,3 15 8 - - ZZW 1023,3 10 0 0,0
19.10.2018 08:00:00 4,3 2,6 13 7 - - Z 1022,8 10 0 0,0
19.10.2018 07:00:00 4,6 2,6 5 3 - - ZW 1023,4 10 0 0,0
19.10.2018 06:00:00 5,5 3,3 15 8 - - ZZW 1023,3 10 0 0,0
19.10.2018 05:00:00 3,5 1,7 9 5 - - ZZW 1023,9 10 0 0,0
19.10.2018 04:00:00 4,5 2,6 11 6 - - ZW 1024,5 10 0 0,0
19.10.2018 03:00:00 2,8 1,8 8 4 - - WZW 1025,3 10 0 0,0
19.10.2018 02:00:00 3,1 2,1 5 3 - - ZW 1025,5 20 0 0,0
19.10.2018 01:00:00 3,9 2,7 4 2 - - ZZW 1026,4 20 - 0,0
19.10.2018 00:00:00 5,3 3,9 9 5 - - ZW 1026,8 21 0 0,0
18.10.2018 23:00:00 5,0 4,0 8 4 - - Z 1027,1 18 0 0,0
18.10.2018 22:00:00 5,2 3,8 8 4 - - ZW 1027,4 10 0 0,0
18.10.2018 21:00:00 6,4 4,9 5 3 - - WZW 1027,5 10 0 0,0
18.10.2018 20:00:00 6,5 5,1 8 4 - - ZW 1027,5 24 0 0,0
18.10.2018 19:00:00 8,1 5,7 11 6 - - Z 1027,4 28 0 0,0
18.10.2018 18:00:00 8,7 6,1 8 4 - - ZO 1027,9 10 18 0,0
18.10.2018 17:00:00 10,4 6,7 9 5 - - ZO 1027,9 30 54 0,0
18.10.2018 16:00:00 10,3 6,5 13 7 - - OZO 1028,1 10 6 0,0
18.10.2018 15:00:00 10,3 5,6 8 4 - - O 1028,6 30 42 0,0
18.10.2018 14:00:00 10,7 6,0 9 5 - - O 1028,7 27 60 0,0
18.10.2018 13:00:00 10,8 6,0 9 5 - - O 1028,9 30 60 0,0
18.10.2018 12:00:00 11,8 5,1 5 3 - - WNW 1029,0 30 60 0,0
18.10.2018 11:00:00 10,7 5,4 5 3 - - W 1029,4 10 60 0,0
18.10.2018 10:00:00 8,5 4,7 13 7 - - W 1029,2 10 60 0,0
18.10.2018 09:00:00 5,8 3,7 11 6 - - W 1029,0 10 48 0,0
18.10.2018 08:00:00 4,1 2,1 15 8 - - W 1028,6 23 0 0,0
18.10.2018 07:00:00 5,6 3,1 13 7 - - W 1028,1 29 0 0,0
18.10.2018 06:00:00 6,0 3,3 15 8 - - W 1027,5 10 0 0,0
18.10.2018 05:00:00 5,7 3,2 18 10 - - W 1027,2 30 0 0,0
18.10.2018 04:00:00 6,1 3,6 16 9 - - W 1027,2 10 0 0,0
18.10.2018 03:00:00 6,6 3,6 13 7 - - W 1026,8 10 0 0,0
18.10.2018 02:00:00 7,3 4,1 18 10 - - W 1026,3 35 0 0,0
18.10.2018 01:00:00 7,4 4,0 22 12 - - W 1026,0 10 - 0,0
18.10.2018 00:00:00 8,0 4,3 21 11 - - W 1025,8 35 0 0,0
17.10.2018 23:00:00 8,1 4,2 18 10 - - W 1025,4 40 0 0,0
17.10.2018 22:00:00 8,5 4,4 18 10 - - W 1024,8 10 0 0,0
17.10.2018 21:00:00 8,8 4,8 15 8 - - W 1024,1 35 0 0,0
17.10.2018 20:00:00 9,5 5,2 15 8 - - W 1023,3 35 0 0,0
17.10.2018 19:00:00 10,3 5,8 13 7 - - W 1022,4 35 0 0,0
17.10.2018 18:00:00 12,0 6,5 13 7 - - W 1021,3 10 24 0,0
17.10.2018 17:00:00 13,0 7,9 11 6 - - WNW 1020,5 10 6 0,0
17.10.2018 16:00:00 13,5 7,7 15 8 - - W 1019,9 35 18 0,0
17.10.2018 15:00:00 14,9 8,1 15 8 - - WZW 1019,1 35 42 0,0
17.10.2018 14:00:00 14,6 7,9 15 8 - - WZW 1018,5 40 18 0,0
17.10.2018 13:00:00 14,3 8,9 15 8 - - WZW 1018,2 10 36 0,0

tt = temperatuur
td = dauwpunt
ff = windsnelheid
fx = windstoten
dd = windrichting
ppp = luchtdruk
vv = zicht
sd = Zonneschijnduur
rr = neerslag

Weerstations in de omgeving